Regional Weather Roundup
Issued by NWS

Home | Current Version | Previous Version | Text Only | Print | Product List | Glossary On
Versions: 1 2 3 4 5 6 7 8 9 10 11 12 13 14 15 16 17 18 19 20 21 22 23 24 25 26 27 28 29 30 31 32 33 34 35 36 37 38 39 40 41 42 43 44 45 46 47 48 49 50
000
ASHW40 PHFO 060643
RWRHI

WEATHER ROUNDUP FOR HAWAII
NATIONAL WEATHER SERVICE HONOLULU HI
800 PM HST THU MAR 05 2015

THIS IS AN AUTOMATED REPORT THAT HAS NOT BEEN QUALITY CONTROLLED.

NOTE..."FAIR" INDICATES FEW OR NO CLOUDS BELOW 12,000 FEET WITH NO
SIGNIFICANT WEATHER AND/OR OBSTRUCTIONS TO VISIBILITY.

* - THESE SITES REPORT LIMITED FIELDS

HIZ001>004-060700-
KAUAI-NIIHAU-

CITY           SKY/WX    TMP DP  RH WIND       PRES   REMARKS
LIHUE APT      CLOUDY    72  57  60 N24       29.99R
PORT ALLEN*      N/A     70 N/A N/A NE8G15      N/A
POIPU*           N/A     68 N/A N/A N10G23      N/A
PRINCEVILLE*     N/A     68 N/A N/A MISG        N/A
KOKOLE POINT*  NOT AVBL
MOLOAA DAIRY*  NOT AVBL
WAIMEA HTS*    NOT AVBL
PUU OPAE*        N/A     59  48  67 NE10G21     N/A
PUU LUA*       NOT AVBL
MAKAHA RIDGE*  NOT AVBL
$$

HIZ005>011-060700-
OAHU-

CITY           SKY/WX    TMP DP  RH WIND       PRES   REMARKS
HONOLULU       PTCLDY    67  60  78 N10       29.93R
KALAELOA       MOCLDY    68  60  75 N8G17     29.93S
KANEOHE MCB    CLOUDY    71  61  70 NE23      29.92S
WHEELER FIELD  FAIR      64  60  87 N9        29.94S
BELLOWS*         N/A    N/A N/A N/A N15G24      N/A
KAHUKU*          N/A    N/A N/A N/A N6G16       N/A
WHEELER*       NOT AVBL
WAIANAE HARBOR NOT AVBL
DILLINGHAM*      N/A    N/A N/A N/A MISG        N/A
KAHUKU TRN*      N/A     66  57  72 N12G22      N/A
KAWAILOA*        N/A    N/A N/A N/A NE9G21      N/A
KII*             N/A    N/A N/A N/A NE18G25     N/A
MAKUA RANGE*     N/A     70  59  68 E15G33      N/A
OAHU FOREST NW   N/A     57  14  18 CALM        N/A
SCHOFIELD BRK*   N/A     64  61  88 MISG        N/A
SCHOFIELD S*   NOT AVBL
WAIANAE VLY*     N/A     63  57  82 N13G32      N/A
KUAOKALA*        N/A     66  55  68 CALM        N/A
HONOULIUULI*   NOT AVBL
MOKUOLOE IS*     N/A    N/A N/A N/A MISG        N/A
PALEHUA*         N/A     70  59  68 CALM        N/A
WAIAWA PHB*    NOT AVBL
$$

HIZ012>013-060700-
MOLOKAI-

CITY           SKY/WX    TMP DP  RH WIND       PRES   REMARKS
MOLOKAI AIRPT  HVY RAIN  64  64 100 N18G24    29.94R
KALAUPAPA      NOT AVBL
MAKAPULAPAI*     N/A     66  64  94 NE12G25     N/A
MOLOKAI 1*       N/A     57  57 100 NE12G26     N/A
PUU ALII*        N/A     54  54 100 E2G12       N/A
$$

HIZ016-060700-
KAHOOLAWE-

CITY           SKY/WX    TMP DP  RH WIND       PRES   REMARKS
KAHOOLAWE*       N/A     63 N/A N/A NE20G30     N/A
HAKIOAWA*        N/A     65  65  99 MISG      30.32
HONOKANAIA*      N/A     69  62  78 N20G41    29.88S
KANELOA*         N/A     68  64  88 MISG      29.09R
KEALIALALO*    NOT AVBL
LUA MAKIKA*    NOT AVBL
$$

HIZ014>015-060700-
LANAI-

CITY           SKY/WX    TMP DP  RH WIND       PRES   REMARKS
LANAI CITY     FAIR      64  63  94 NE24G36   29.94R SQUALL
LANAI 1*         N/A     63  63 100 NE23G37     N/A
$$

HIZ017>028-060700-
MAUI-

CITY           SKY/WX    TMP DP  RH WIND       PRES   REMARKS
KAHULUI        CLOUDY    66  63  88 NE9       29.94R
KAPALUA-W MAUI NOT AVBL
HANA AIRPORT   MOCLDY    64  64 100 SW2       29.97S
HANA*            N/A     66 N/A N/A W7G16       N/A
HALEAKALA SUMM   N/A     37  37 100 W6G21       N/A
MAALAEA BAY*   NOT AVBL
HALEAKALA*     NOT AVBL
KAUPO GAP*       N/A     55  55 100 N3          N/A
KULA 1*          N/A     48  46  93 NE5         N/A
$$

HIZ023>026-060700-
BIG ISLAND OF HAWAII COAST AND LOWER SLOPES-

CITY           SKY/WX    TMP DP  RH WIND       PRES   REMARKS
KAILUA KONA    MOCLDY    73  65  75 N17       29.85R
HILO           CLOUDY    72  63  73 N14       29.89R
HONOKAA*       NOT AVBL
KAWAIHAE MWT*    N/A     77 N/A N/A SW7         N/A
KAWAIHAE*        N/A     75 N/A N/A SE5         N/A
SOUTH POINT*     N/A     68 N/A N/A NW5         N/A
UPOLU AIRPORT*   N/A    N/A N/A N/A NE21G26     N/A
KAMUELA*       CLOUDY    61  59  94 NE16      29.97S
HAKALAU*         N/A     48  46  93 NE3         N/A
KALOKO-HONOKO*   N/A     72  63  73 SE5G12    29.85R
PALI 2*          N/A     63  57  82 N16G25      N/A
KEALAKOMO*       N/A    N/A N/A N/A N28G41      N/A
KAUPULEHU*       N/A     70  55  60 E8G18       N/A
KAPAPALA*        N/A     64  62  92 CALM        N/A
LOWER KAHUKU*    N/A     61  59  94 N1          N/A
PUHE CS*         N/A     75  63  64 SW3G9       N/A
PUHO CS*         N/A     71  63  76 E2          N/A
PTA KEAMUKU*     N/A     59  55  88 CALM        N/A
WAIKOLOA*        N/A     70  57  64 E15G26      N/A
$$

HIZ027>028-060700-
BIG ISLAND OF HAWAII INTERIOR AND SUMMMITS-

CITY           SKY/WX    TMP DP  RH WIND       PRES   REMARKS
BRADSHAW FIELD CLOUDY    52  50  93 SE1       30.15R
MK VISITOR CEN NOT AVBL
MAUNA KEA*       N/A     28  -8  20 NW49        N/A  WCI   9
MAUNA LOA*       N/A     39   9  28 MISG        N/A
MAUNA LOA 1*   NOT AVBL
PTA KIPUKA*      N/A     52  50  93 SW1         N/A
PTA RANGE 17*    N/A     52  50  93 W1G8        N/A
PTA WEST*        N/A     55  54  94 S3G9        N/A
NENE CABIN*      N/A     48 N/A N/A E2          N/A
AHUMOA*          N/A     50  46  85 E3G16       N/A
PTA PORTABLE*  NOT AVBL
PUU MALI*      NOT AVBL
$$

HIC003-060700-
NORTHWEST ISLANDS-

CITY           SKY/WX    TMP DP  RH WIND       PRES   REMARKS
MIDWAY ISLAND  MOCLDY    59  57  94 E24G33    30.36R
MIDWAY NOS*    NOT AVBL
FRENCH FRIGATE NOT AVBL
$$

PHZ110>124-180-060700-
BUOY REPORTS

STATION/POSITION TIME  TEMP    WIND        PRES    WAVE   SWELL
                       AIR SEA DIR/SP/G            HT/PER HT/DIR
                 (UTC) (F)     (DEG/KT/KT) (MB)    (FT/S) (FT/D)
BUOY 51001       NOT AVBL
BUOY 51101       0600   66 72   20/ 21/ 29 1018.1R  10/ 9   7/ 30
BUOY 51100       0600   69      40/ 19       N/A
BUOY 51003       0600   75 78   40/ 19/ 23 1012.5R  10/ 9   7
BUOY 51004       0500   75 78   40/ 16/ 17 1010.2    7/ 8   5/ 80
BARBERS PT BUOY  NOT AVBL
WAIMEA BAY BUOY  0600      77                N/A     9/ 9   5/340
KAILUA BAY BUOY  0600      76                N/A     8/ 9   3
LANAI BUOY       0600      76                N/A     4/10   2/300
BARBERS PT 2     0600      77                N/A     4/14   2/200
PAUWELA MAUI     0600      75                N/A     9/10   5/350
HILO             0600      77                N/A     7/ 9   3/350
KANEOHE BAY BUOY 0600      76                N/A     9/ 9   3/360
HANALEI KAUAI    NOT AVBL
KAHULUI HARBOR   0600   69 75   50/ 12/ 15 1013.4R
HONOLULU HARBOR  0600   70 76   10/  4/ 10 1012.9R
KILO NALU        NOT AVBL
HILO HARBOR      0600   72 75  330/ 12/ 14 1012.5R
MOKUOLOE         0600   72 75   20/ 18/ 22 1013.8S
NAWILIWILI       0600   69 78  350/  4/ 17 1015.3R
WHOTS BUOY       NOT AVBL
BUOY 51028       NOT AVBL
$$

......................KEY........................................
  SKY/WX - SKY CONDITIONS/PRESENT WEATHER
  TMP    - TEMPERATURE IN FAHRENHEIT
  DWPT   - DEWPOINT IN FAHRENHEIT
  RH     - RELATIVE HUMIDITY IN PERCENT
  WIND   - DIRECTION AND SPEED /MPH FOR ISLANDS...KTS FOR BUOYS/
  PRES   - MEAN SEA LEVEL PRESSURE IN INCHES OF HG
  VSB    - VISIBILITY IN MILES
  HX     - HEAT INDEX
  WCI    - WIND CHILL INDEX
  VRB    - VARIABLE WIND DIRECTION
  N/A    - NOT AVAILABLE


USA.gov is the U.S. government's official web portal to all federal, state and local government web resources and services.